Location: Bellerive
(46.9237°N, 7.0223°E)
Time: 04:26:26
(UTC+00:00)

CZ-2C R/B - Pass Details

Date: 09 April 2020
Orbit: 785 x 870 km, 98.3° (Epoch: 01 June)

Event Time Altitude Azimuth Distance (km) Brightness Sun altitude
Rises 20:57:15 0° 5° (N) 3,289 6.4 -25.1°
Reaches altitude 10° 20:59:47 10° 355° (N) 2,356 5.7 -25.4°
Maximum altitude 21:04:17 31° 295° (WNW) 1,365 4.3 -25.9°
Drops below altitude 10° 21:08:47 10° 235° (SW) 2,360 5.1 -26.4°
Sets 21:11:20 0° 225° (SW) 3,295 5.7 -26.7°
